Orbital Elements at Epoch 2459200.5 (2020-Dec-17.0) TDB
Reference: JPL 17 (heliocentric ecliptic J2000)
Element | Value | Uncertainty (1-sigma) | Units |
e | .1226277731844898 | 5.9463e-08 | |
a | 2.337205384733746 | 1.0043e-08 | au |
q | 2.050599092929048 | 1.3926e-07 | au |
i | 2.826413817746801 | 6.4801e-06 | deg |
node | 144.8817513366377 | 9.3152e-05 | deg |
peri | 176.4137961022653 | 9.5121e-05 | deg |
M | 150.2580466346395 | 1.9861e-05 | deg |
tp | 2458655.772899637146 (2019-Jun-21.27289964) | 7.1663e-05 | TDB |
period | 1305.09986335347 3.57 | 8.412e-06 2.303e-08 | d yr |
n | .2758409606104592 | 1.7779e-09 | deg/d |
Q | 2.623811676538444 | 1.1274e-08 | au |
|
| | Orbit Determination Parameters
Additional Information
|